| time (UTC) | temp C | wind direction | speed KPH | gust KPH | rain 1hr cm | rain 24hr cm | rain mn cm | humidity % | barometer mb |
| 20260502130428 | 5 | 101 | 1.6 | 12.9 | 0.00 | 0.03 | 0.03 | 81 | 1015.4 |
| 20260502123411 | 3 | 208 | 1.6 | 8.0 | 0.00 | 0.03 | 0.03 | 86 | 1015.4 |
| 20260502122908 | 3 | 189 | 1.6 | 3.2 | 0.00 | 0.03 | 0.03 | 92 | 1015.4 |
| 20260502122404 | 3 | 162 | 0.0 | 3.2 | 0.00 | 0.03 | 0.03 | 94 | 1015.1 |
| 20260502121902 | 2 | 142 | 0.0 | 1.6 | 0.00 | 0.03 | 0.03 | 96 | 1015.2 |
| 20260502121359 | 2 | 98 | 0.0 | 1.6 | 0.00 | 0.03 | 0.03 | 96 | 1015.2 |
| 20260502120857 | 2 | 258 | 1.6 | 3.2 | 0.00 | 0.03 | 0.03 | 97 | 1015.4 |
| 20260502120353 | 2 | 122 | 0.0 | 3.2 | 0.00 | 0.03 | 0.03 | 97 | 1015.4 |
| 20260502115850 | 2 | 203 | 0.0 | 1.6 | 0.00 | 0.03 | 0.03 | 97 | 1015.3 |
| 20260502115347 | 1 | 195 | 1.6 | 3.2 | 0.00 | 0.03 | 0.03 | 97 | 1015.3 |
| 20260502114843 | 1 | 188 | 0.0 | 0.0 | 0.00 | 0.03 | 0.03 | 97 | 1015.3 |
| 20260502114341 | 1 | 198 | 0.0 | 0.0 | 0.00 | 0.03 | 0.03 | 97 | 1015.3 |
| 20260502113837 | 0 | 116 | 0.0 | 0.0 | 0.00 | 0.03 | 0.03 | 97 | 1015.2 |
| 20260502113335 | 0 | 146 | 0.0 | 0.0 | 0.00 | 0.03 | 0.03 | 97 | 1015.4 |
| 20260502112833 | 0 | 125 | 0.0 | 0.0 | 0.00 | 0.03 | 0.03 | 97 | 1015.5 |
| 20260502112330 | 0 | 137 | 0.0 | 0.0 | 0.00 | 0.03 | 0.03 | 97 | 1015.7 |
| 20260502111828 | 0 | 166 | 0.0 | 0.0 | 0.00 | 0.03 | 0.03 | 97 | 1015.5 |
| 20260502111325 | 0 | 157 | 0.0 | 0.0 | 0.00 | 0.03 | 0.03 | 97 | 1015.4 |
| 20260502110823 | 0 | 164 | 0.0 | 0.0 | 0.00 | 0.03 | 0.03 | 96 | 1015.4 |
| 20260502110320 | 0 | 165 | 0.0 | 0.0 | 0.00 | 0.03 | 0.03 | 96 | 1015.4 |
| 20260502105818 | 0 | 159 | 0.0 | 0.0 | 0.00 | 0.03 | 0.03 | 96 | 1015.2 |
| 20260502105314 | 0 | 187 | 0.0 | 1.6 | 0.00 | 0.03 | 0.03 | 96 | 1015.3 |
| 20260502104812 | 0 | 196 | 1.6 | 1.6 | 0.00 | 0.03 | 0.03 | 96 | 1015.3 |
| 20260502104309 | 0 | 156 | 0.0 | 1.6 | 0.00 | 0.03 | 0.03 | 96 | 1015.3 |
| 20260502103806 | 0 | 210 | 1.6 | 1.6 | 0.00 | 0.03 | 0.03 | 96 | 1015.4 |
| 20260502103303 | 0 | 219 | 1.6 | 1.6 | 0.00 | 0.03 | 0.03 | 96 | 1015.2 |
| 20260502102801 | 0 | 211 | 1.6 | 1.6 | 0.00 | 0.03 | 0.03 | 96 | 1015.1 |
| 20260502102257 | 0 | 229 | 0.0 | 0.0 | 0.00 | 0.03 | 0.03 | 96 | 1015.1 |
| 20260502101755 | 0 | 190 | 0.0 | 0.0 | 0.00 | 0.03 | 0.03 | 96 | 1015.3 |
| 20260502101253 | 0 | 210 | 0.0 | 0.0 | 0.00 | 0.03 | 0.03 | 96 | 1015.1 |
| 20260502100751 | 0 | 188 | 0.0 | 0.0 | 0.00 | 0.03 | 0.03 | 96 | 1015.0 |
| 20260502100249 | 0 | 188 | 0.0 | 0.0 | 0.00 | 0.03 | 0.03 | 96 | 1015.1 |
| 20260502091224 | 1 | 207 | 0.0 | 0.0 | 0.00 | 0.03 | 0.03 | 96 | 1014.9 |
| 20260502090721 | 1 | 171 | 0.0 | 1.6 | 0.00 | 0.03 | 0.03 | 96 | 1014.9 |
| 20260502090217 | 1 | 208 | 1.6 | 1.6 | 0.00 | 0.03 | 0.03 | 96 | 1014.8 |
| 20260502071113 | 3 | 119 | 0.0 | 0.0 | 0.00 | 0.03 | 0.03 | 96 | 1015.0 |
| 20260502070611 | 3 | 119 | 0.0 | 0.0 | 0.00 | 0.03 | 0.03 | 96 | 1014.8 |
| 20260502070109 | 3 | 214 | 1.6 | 3.2 | 0.00 | 0.03 | 0.03 | 96 | 1014.9 |
| 20260502065607 | 3 | 187 | 1.6 | 1.6 | 0.00 | 0.03 | 0.03 | 96 | 1014.8 |
| 20260502065104 | 3 | 158 | 1.6 | 1.6 | 0.00 | 0.03 | 0.03 | 96 | 1015.2 |
| 20260502064603 | 3 | 171 | 1.6 | 1.6 | 0.00 | 0.03 | 0.03 | 96 | 1015.0 |
| 20260502064059 | 3 | 159 | 0.0 | 0.0 | 0.00 | 0.03 | 0.03 | 96 | 1015.2 |
| 20260502063557 | 3 | 134 | 0.0 | 0.0 | 0.00 | 0.03 | 0.03 | 96 | 1014.9 |
| 20260502063055 | 3 | 128 | 0.0 | 1.6 | 0.00 | 0.03 | 0.03 | 96 | 1015.1 |
| 20260502062552 | 3 | 126 | 1.6 | 1.6 | 0.18 | 0.03 | 0.03 | 96 | 1015.0 |
| 20260502062050 | 3 | 138 | 0.0 | 1.6 | 0.18 | 0.03 | 0.03 | 96 | 1015.2 |
| 20260502061547 | 3 | 200 | 0.0 | 3.2 | 0.00 | 0.00 | 0.00 | 96 | 1015.5 |
| 20260502061044 | 3 | 226 | 3.2 | 3.2 | 0.00 | 0.00 | 0.00 | 96 | 1015.5 |
| 20260502060539 | 3 | 224 | 1.6 | 3.2 | 0.00 | 0.00 | 0.00 | 96 | 1015.4 |
| 20260502060037 | 3 | 232 | 3.2 | 3.2 | 0.00 | 0.00 | 0.00 | 96 | 1015.4 |
| 20260502055534 | 3 | 273 | 3.2 | 3.2 | 0.00 | 0.00 | 0.00 | 96 | 1015.4 |
| 20260502055033 | 3 | 200 | 1.6 | 3.2 | 0.00 | 0.00 | 0.00 | 96 | 1015.2 |
| 20260502054531 | 3 | 238 | 1.6 | 4.8 | 0.00 | 0.00 | 0.00 | 96 | 1015.4 |
| 20260502054027 | 3 | 244 | 3.2 | 3.2 | 0.00 | 0.00 | 0.00 | 95 | 1015.2 |
| 20260502053524 | 3 | 254 | 3.2 | 3.2 | 0.00 | 0.00 | 0.00 | 95 | 1015.3 |
| 20260502053022 | 3 | 200 | 0.0 | 0.0 | 0.00 | 0.00 | 0.00 | 95 | 1015.3 |
| 20260502052521 | 3 | 137 | 0.0 | 0.0 | 0.00 | 0.00 | 0.00 | 95 | 1015.5 |
| 20260502052018 | 3 | 180 | 0.0 | 0.0 | 0.00 | 0.00 | 0.00 | 95 | 1015.3 |
| 20260502051516 | 3 | 125 | 0.0 | 0.0 | 0.00 | 0.00 | 0.00 | 95 | 1015.3 |
| 20260502051013 | 3 | 143 | 0.0 | 0.0 | 0.00 | 0.00 | 0.00 | 95 | 1015.5 |
| 20260502050509 | 3 | 193 | 0.0 | 0.0 | 0.00 | 0.00 | 0.00 | 95 | 1015.7 |
| 20260502050007 | 3 | 172 | 0.0 | 0.0 | 0.00 | 0.00 | 0.00 | 95 | 1015.6 |
| 20260502045503 | 3 | 186 | 0.0 | 0.0 | 0.00 | 0.00 | 0.00 | 95 | 1015.8 |
| 20260502045001 | 3 | 172 | 0.0 | 0.0 | 0.00 | 0.00 | 0.00 | 95 | 1015.5 |
| 20260502044456 | 3 | 165 | 0.0 | 0.0 | 0.00 | 0.00 | 0.00 | 95 | 1015.8 |
| 20260502043953 | 3 | 145 | 0.0 | 0.0 | 0.00 | 0.00 | 0.00 | 95 | 1015.8 |
| 20260502043451 | 3 | 177 | 0.0 | 0.0 | 0.00 | 0.00 | 0.00 | 95 | 1015.6 |
| 20260502042950 | 3 | 207 | 0.0 | 0.0 | 0.00 | 0.00 | 0.00 | 95 | 1015.7 |
| 20260502042447 | 3 | 197 | 0.0 | 0.0 | 0.00 | 0.00 | 0.00 | 95 | 1015.8 |
| 20260502041945 | 3 | 208 | 0.0 | 0.0 | 0.00 | 0.00 | 0.00 | 95 | 1015.7 |
| 20260502041443 | 3 | 172 | 0.0 | 0.0 | 0.00 | 0.00 | 0.00 | 95 | 1015.7 |
| 20260502040939 | 3 | 182 | 0.0 | 0.0 | 0.00 | 0.00 | 0.00 | 95 | 1015.8 |
| 20260502040436 | 3 | 206 | 0.0 | 0.0 | 0.00 | 0.00 | 0.00 | 95 | 1015.9 |
| 20260502035932 | 3 | 238 | 0.0 | 0.0 | 0.00 | 0.58 | 0.58 | 95 | 1015.7 |
| 20260502035428 | 3 | 225 | 0.0 | 0.0 | 0.00 | 0.58 | 0.58 | 95 | 1015.6 |
| 20260502034926 | 3 | 261 | 0.0 | 0.0 | 0.00 | 0.58 | 0.58 | 95 | 1015.7 |
| 20260502034425 | 3 | 264 | 0.0 | 0.0 | 0.00 | 0.58 | 0.58 | 95 | 1015.5 |
| 20260502033923 | 3 | 184 | 0.0 | 0.0 | 0.00 | 0.58 | 0.58 | 95 | 1015.6 |
| 20260502033420 | 3 | 175 | 0.0 | 0.0 | 0.00 | 0.58 | 0.58 | 95 | 1015.6 |
| 20260502032917 | 4 | 159 | 0.0 | 1.6 | 0.00 | 0.58 | 0.58 | 95 | 1015.6 |
| 20260502032413 | 4 | 194 | 1.6 | 1.6 | 0.00 | 0.58 | 0.58 | 95 | 1015.7 |
| 20260502031910 | 4 | 251 | 1.6 | 3.2 | 0.00 | 0.58 | 0.58 | 95 | 1015.6 |
| 20260502031409 | 4 | 119 | 1.6 | 3.2 | 0.00 | 0.58 | 0.58 | 95 | 1015.7 |
| 20260502030907 | 4 | 189 | 1.6 | 3.2 | 0.00 | 0.58 | 0.58 | 95 | 1015.6 |
| 20260502030404 | 3 | 227 | 1.6 | 3.2 | 0.00 | 0.58 | 0.58 | 95 | 1015.6 |
| 20260502025902 | 3 | 219 | 1.6 | 3.2 | 0.00 | 0.58 | 0.58 | 95 | 1015.4 |
| 20260502025359 | 3 | 225 | 1.6 | 3.2 | 0.00 | 0.58 | 0.58 | 94 | 1015.5 |
| 20260502024857 | 4 | 223 | 1.6 | 3.2 | 0.00 | 0.58 | 0.58 | 94 | 1015.3 |
| 20260502024354 | 4 | 218 | 1.6 | 1.6 | 0.00 | 0.58 | 0.58 | 94 | 1015.3 |
| 20260502023852 | 4 | 145 | 0.0 | 1.6 | 0.00 | 0.58 | 0.58 | 94 | 1015.3 |
| 20260502023350 | 4 | 194 | 1.6 | 1.6 | 0.00 | 0.58 | 0.58 | 94 | 1015.4 |
| 20260502022847 | 4 | 210 | 1.6 | 1.6 | 0.00 | 0.58 | 0.58 | 94 | 1015.6 |
| 20260502022343 | 4 | 149 | 0.0 | 1.6 | 0.00 | 0.58 | 0.58 | 94 | 1015.4 |
| 20260502021840 | 4 | 135 | 0.0 | 1.6 | 0.00 | 0.58 | 0.58 | 94 | 1015.5 |
| 20260502021338 | 4 | 187 | 1.6 | 1.6 | 0.00 | 0.58 | 0.58 | 94 | 1015.4 |
| 20260502020835 | 4 | 180 | 0.0 | 1.6 | 0.00 | 0.58 | 0.58 | 94 | 1015.4 |
| 20260502020333 | 4 | 182 | 1.6 | 1.6 | 0.00 | 0.58 | 0.58 | 94 | 1015.5 |
| 20260502015829 | 4 | 216 | 1.6 | 1.6 | 0.00 | 0.58 | 0.58 | 94 | 1015.3 |
| 20260502015327 | 4 | 180 | 1.6 | 1.6 | 0.00 | 0.58 | 0.58 | 94 | 1015.4 |
| 20260502014824 | 4 | 190 | 1.6 | 1.6 | 0.00 | 0.58 | 0.58 | 93 | 1015.3 |
| 20260502014321 | 4 | 91 | 1.6 | 1.6 | 0.00 | 0.58 | 0.58 | 93 | 1015.0 |
| 20260502013817 | 4 | 129 | 1.6 | 1.6 | 0.00 | 0.58 | 0.58 | 93 | 1015.2 |
| 20260502013313 | 4 | 219 | 1.6 | 3.2 | 0.00 | 0.58 | 0.58 | 93 | 1014.7 |
| 20260502012809 | 4 | 226 | 1.6 | 3.2 | 0.00 | 0.58 | 0.58 | 93 | 1014.7 |
| 20260502012307 | 4 | 223 | 1.6 | 1.6 | 0.00 | 0.58 | 0.58 | 93 | 1014.6 |
| 20260502011804 | 4 | 245 | 1.6 | 3.2 | 0.00 | 0.58 | 0.58 | 93 | 1014.7 |
| 20260502011300 | 4 | 212 | 1.6 | 1.6 | 0.00 | 0.58 | 0.58 | 93 | 1014.8 |
| 20260502010757 | 4 | 153 | 0.0 | 1.6 | 0.00 | 0.58 | 0.58 | 93 | 1014.5 |
| 20260502010254 | 4 | 261 | 1.6 | 3.2 | 0.00 | 0.58 | 0.58 | 93 | 1014.5 |
| 20260502005751 | 4 | 208 | 1.6 | 1.6 | 0.00 | 0.58 | 0.58 | 93 | 1014.5 |
| 20260502005249 | 4 | 242 | 3.2 | 3.2 | 0.00 | 0.58 | 0.58 | 92 | 1014.6 |
| 20260502004745 | 4 | 178 | 1.6 | 1.6 | 0.00 | 0.58 | 0.58 | 92 | 1014.7 |
| 20260502004242 | 4 | 235 | 1.6 | 3.2 | 0.00 | 0.58 | 0.58 | 92 | 1014.8 |
| 20260502003740 | 4 | 131 | 1.6 | 1.6 | 0.00 | 0.58 | 0.58 | 91 | 1014.8 |
| 20260502003237 | 4 | 217 | 1.6 | 3.2 | 0.00 | 0.58 | 0.58 | 91 | 1014.5 |
| 20260502002732 | 5 | 254 | 1.6 | 1.6 | 0.00 | 0.58 | 0.58 | 90 | 1014.4 |
| 20260502002230 | 5 | 214 | 1.6 | 1.6 | 0.00 | 0.58 | 0.58 | 90 | 1014.4 |
| 20260502001727 | 5 | 240 | 1.6 | 3.2 | 0.00 | 0.58 | 0.58 | 89 | 1014.2 |
| 20260502001225 | 5 | 160 | 0.0 | 1.6 | 0.00 | 0.58 | 0.58 | 88 | 1014.2 |
| 20260502000723 | 5 | 196 | 1.6 | 1.6 | 0.00 | 0.58 | 0.58 | 87 | 1014.1 |
| 20260502000220 | 6 | 147 | 0.0 | 0.0 | 0.00 | 0.58 | 0.58 | 85 | 1013.9 |
| 20260501235716 | 6 | 97 | 0.0 | 0.0 | 0.00 | 0.58 | 0.58 | 83 | 1013.7 |
| 20260501235212 | 6 | 122 | 0.0 | 1.6 | 0.00 | 0.58 | 0.58 | 81 | 1013.5 |
| 20260501234708 | 7 | 171 | 0.0 | 1.6 | 0.00 | 0.58 | 0.58 | 82 | 1013.5 |
| 20260501234205 | 7 | 113 | 0.0 | 3.2 | 0.00 | 0.58 | 0.58 | 81 | 1013.4 |
| 20260501233703 | 7 | 117 | 1.6 | 1.6 | 0.00 | 0.58 | 0.58 | 82 | 1013.5 |
| 20260501233200 | 7 | 115 | 0.0 | 1.6 | 0.00 | 0.58 | 0.58 | 82 | 1013.4 |
| 20260501232655 | 7 | 114 | 0.0 | 1.6 | 0.00 | 0.58 | 0.58 | 82 | 1013.0 |
| 20260501232153 | 8 | 151 | 0.0 | 1.6 | 0.00 | 0.58 | 0.58 | 81 | 1013.1 |
| 20260501231651 | 8 | 116 | 0.0 | 0.0 | 0.00 | 0.58 | 0.58 | 81 | 1013.3 |
| 20260501231149 | 7 | 87 | 0.0 | 9.7 | 0.00 | 0.58 | 0.58 | 83 | 1013.4 |
| 20260501230647 | 7 | 202 | 3.2 | 4.8 | 0.00 | 0.58 | 0.58 | 82 | 1013.3 |
| 20260501230145 | 8 | 278 | 0.0 | 4.8 | 0.00 | 0.58 | 0.58 | 81 | 1013.2 |
| 20260501225642 | 8 | 163 | 1.6 | 8.0 | 0.00 | 0.58 | 0.58 | 81 | 1013.2 |
| 20260501225138 | 8 | 299 | 1.6 | 8.0 | 0.00 | 0.58 | 0.58 | 81 | 1013.2 |
| 20260501224635 | 7 | 293 | 4.8 | 4.8 | 0.00 | 0.58 | 0.58 | 83 | 1013.4 |
| 20260501224133 | 7 | 4 | 3.2 | 4.8 | 0.00 | 0.58 | 0.58 | 84 | 1013.5 |
| 20260501223629 | 7 | 100 | 1.6 | 3.2 | 0.00 | 0.58 | 0.58 | 85 | 1013.4 |
| 20260501223126 | 7 | 248 | 4.8 | 8.0 | 0.00 | 0.58 | 0.58 | 83 | 1013.3 |
| 20260501222621 | 7 | 277 | 8.0 | 11.3 | 0.00 | 0.58 | 0.58 | 84 | 1013.2 |
| 20260501222119 | 7 | 137 | 1.6 | 4.8 | 0.00 | 0.58 | 0.58 | 85 | 1013.4 |
| 20260501221615 | 7 | 135 | 1.6 | 4.8 | 0.00 | 0.58 | 0.58 | 85 | 1013.2 |
| 20260501221113 | 7 | 186 | 3.2 | 11.3 | 0.00 | 0.58 | 0.58 | 84 | 1013.2 |
| 20260501220611 | 7 | 231 | 9.7 | 12.9 | 0.00 | 0.58 | 0.58 | 85 | 1013.0 |
| 20260501220107 | 7 | 211 | 1.6 | 3.2 | 0.00 | 0.58 | 0.58 | 86 | 1012.9 |
| 20260501215604 | 7 | 241 | 4.8 | 9.7 | 0.00 | 0.58 | 0.58 | 85 | 1012.5 |
| 20260501215059 | 7 | 195 | 1.6 | 1.6 | 0.00 | 0.58 | 0.58 | 84 | 1012.6 |
| 20260501214554 | 7 | 213 | 3.2 | 8.0 | 0.00 | 0.58 | 0.58 | 84 | 1012.4 |
| 20260501214050 | 7 | 312 | 4.8 | 8.0 | 0.00 | 0.58 | 0.58 | 83 | 1012.3 |
| 20260501213547 | 7 | 265 | 4.8 | 12.9 | 0.00 | 0.58 | 0.58 | 83 | 1012.2 |
| 20260501213044 | 8 | 267 | 4.8 | 14.5 | 0.00 | 0.58 | 0.58 | 82 | 1012.2 |
| 20260501212540 | 8 | 145 | 4.8 | 16.1 | 0.00 | 0.58 | 0.58 | 82 | 1012.1 |
| 20260501212037 | 8 | 289 | 3.2 | 4.8 | 0.00 | 0.58 | 0.58 | 83 | 1012.1 |
| 20260501211534 | 8 | 168 | 0.0 | 11.3 | 0.00 | 0.58 | 0.58 | 84 | 1011.8 |
| 20260501211032 | 8 | 113 | 3.2 | 9.7 | 0.00 | 0.58 | 0.58 | 84 | 1011.7 |
| 20260501210527 | 8 | 259 | 4.8 | 14.5 | 0.00 | 0.58 | 0.58 | 84 | 1011.4 |
| 20260501210025 | 8 | 215 | 3.2 | 8.0 | 0.00 | 0.58 | 0.58 | 85 | 1011.4 |
| 20260501205521 | 9 | 297 | 4.8 | 9.7 | 0.00 | 0.58 | 0.58 | 84 | 1011.2 |
| 20260501205019 | 9 | 223 | 1.6 | 8.0 | 0.00 | 0.58 | 0.58 | 84 | 1011.2 |
| 20260501204515 | 9 | 336 | 6.4 | 11.3 | 0.00 | 0.58 | 0.58 | 85 | 1011.1 |
| 20260501204011 | 9 | 267 | 8.0 | 11.3 | 0.00 | 0.58 | 0.58 | 84 | 1010.8 |
| 20260501203508 | 10 | 31 | 4.8 | 9.7 | 0.00 | 0.58 | 0.58 | 82 | 1011.2 |
| 20260501203006 | 10 | 221 | 6.4 | 11.3 | 0.00 | 0.58 | 0.58 | 85 | 1010.9 |
| 20260501202502 | 10 | 87 | 0.0 | 4.8 | 0.00 | 0.58 | 0.58 | 84 | 1010.8 |
| 20260501201958 | 10 | 31 | 3.2 | 9.7 | 0.00 | 0.58 | 0.58 | 85 | 1011.0 |
| 20260501201456 | 10 | 252 | 4.8 | 11.3 | 0.00 | 0.58 | 0.58 | 85 | 1010.7 |
| 20260501200953 | 9 | 212 | 3.2 | 4.8 | 0.00 | 0.58 | 0.58 | 85 | 1010.7 |
| 20260501200450 | 10 | 344 | 4.8 | 16.1 | 0.00 | 0.58 | 0.58 | 84 | 1010.6 |
| 20260501195947 | 11 | 211 | 9.7 | 12.9 | 0.00 | 0.58 | 0.58 | 85 | 1010.2 |
| 20260501195444 | 11 | 252 | 6.4 | 14.5 | 0.00 | 0.58 | 0.58 | 86 | 1010.0 |
| 20260501194939 | 12 | 146 | 3.2 | 8.0 | 0.00 | 0.58 | 0.58 | 86 | 1009.9 |
| 20260501194435 | 11 | 185 | 1.6 | 4.8 | 0.00 | 0.58 | 0.58 | 86 | 1009.9 |
| 20260501193931 | 11 | 337 | 3.2 | 11.3 | 0.00 | 0.58 | 0.58 | 87 | 1010.1 |
| 20260501193430 | 12 | 202 | 1.6 | 3.2 | 0.00 | 0.58 | 0.58 | 89 | 1010.1 |
| 20260501192927 | 11 | 250 | 1.6 | 3.2 | 0.00 | 0.58 | 0.58 | 91 | 1009.9 |
| 20260501192424 | 9 | 70 | 0.0 | 1.6 | 0.00 | 0.58 | 0.58 | 91 | 1010.2 |
| 20260501191922 | 9 | 104 | 0.0 | 1.6 | 0.00 | 0.58 | 0.58 | 91 | 1010.5 |
| 20260501191419 | 8 | 185 | 1.6 | 1.6 | 0.00 | 0.58 | 0.58 | 91 | 1010.3 |
| 20260501190916 | 8 | 242 | 3.2 | 4.8 | 0.00 | 0.58 | 0.58 | 90 | 1010.4 |
| 20260501190412 | 9 | 221 | 3.2 | 3.2 | 0.00 | 0.58 | 0.58 | 90 | 1010.5 |
| 20260501185912 | 9 | 212 | 1.6 | 3.2 | 0.00 | 0.58 | 0.58 | 89 | 1010.5 |
| 20260501185408 | 9 | 129 | 0.0 | 1.6 | 0.00 | 0.58 | 0.58 | 89 | 1010.4 |
| 20260501184904 | 9 | 294 | 1.6 | 3.2 | 0.00 | 0.58 | 0.58 | 89 | 1010.3 |
| 20260501184400 | 9 | 142 | 0.0 | 3.2 | 0.00 | 0.58 | 0.58 | 89 | 1010.3 |
| 20260501183855 | 9 | 75 | 0.0 | 1.6 | 0.00 | 0.58 | 0.58 | 89 | 1010.1 |
| 20260501183353 | 9 | 191 | 3.2 | 3.2 | 0.13 | 0.58 | 0.58 | 89 | 1010.3 |
| 20260501182850 | 10 | 132 | 0.0 | 0.0 | 0.13 | 0.58 | 0.58 | 89 | 1010.5 |
| 20260501182346 | 9 | 136 | 0.0 | 3.2 | 0.00 | 0.56 | 0.56 | 89 | 1010.5 |
| 20260501181843 | 9 | 108 | 3.2 | 3.2 | 0.00 | 0.56 | 0.56 | 89 | 1010.3 |
| 20260501181340 | 9 | 157 | 1.6 | 4.8 | 0.00 | 0.56 | 0.56 | 88 | 1010.5 |
| 20260501180838 | 9 | 218 | 6.4 | 8.0 | 0.00 | 0.56 | 0.56 | 88 | 1010.3 |
| 20260501180333 | 9 | 118 | 0.0 | 1.6 | 0.00 | 0.56 | 0.56 | 89 | 1010.4 |
| 20260501175831 | 10 | 102 | 0.0 | 1.6 | 0.00 | 0.56 | 0.56 | 90 | 1010.4 |
| 20260501175327 | 9 | 156 | 1.6 | 3.2 | 0.00 | 0.56 | 0.56 | 89 | 1010.5 |
| 20260501174824 | 9 | 105 | 0.0 | 1.6 | 0.00 | 0.56 | 0.56 | 89 | 1010.3 |
| 20260501174321 | 9 | 93 | 0.0 | 0.0 | 0.00 | 0.56 | 0.56 | 90 | 1010.4 |
| 20260501173820 | 8 | 92 | 0.0 | 0.0 | 0.00 | 0.56 | 0.56 | 90 | 1010.4 |
| 20260501173317 | 8 | 179 | 0.0 | 3.2 | 0.00 | 0.56 | 0.56 | 90 | 1010.7 |
| 20260501172812 | 8 | 122 | 0.0 | 1.6 | 0.00 | 0.56 | 0.56 | 91 | 1010.7 |
| 20260501172307 | 8 | 310 | 1.6 | 3.2 | 0.18 | 0.56 | 0.56 | 91 | 1010.8 |
| 20260501171803 | 8 | 197 | 1.6 | 3.2 | 0.18 | 0.56 | 0.56 | 91 | 1010.8 |
| 20260501171300 | 8 | 94 | 1.6 | 3.2 | 0.30 | 0.53 | 0.53 | 91 | 1010.9 |
| 20260501170757 | 7 | 203 | 1.6 | 3.2 | 0.18 | 0.51 | 0.51 | 91 | 1010.9 |
| 20260501170254 | 7 | 216 | 3.2 | 3.2 | 0.30 | 0.48 | 0.48 | 91 | 1010.9 |
| 20260501165751 | 7 | 301 | 1.6 | 3.2 | 0.30 | 0.46 | 0.46 | 91 | 1010.9 |
| 20260501165249 | 7 | 186 | 1.6 | 1.6 | 0.30 | 0.43 | 0.43 | 91 | 1011.0 |
| 20260501164747 | 7 | 119 | 1.6 | 1.6 | 0.30 | 0.41 | 0.41 | 91 | 1011.0 |
| 20260501164244 | 7 | 120 | 0.0 | 0.0 | 0.48 | 0.38 | 0.38 | 91 | 1011.0 |
| 20260501163739 | 7 | 185 | 1.6 | 1.6 | 0.18 | 0.33 | 0.33 | 90 | 1011.1 |
| 20260501163237 | 7 | 154 | 1.6 | 1.6 | 0.00 | 0.30 | 0.30 | 90 | 1011.1 |
| 20260501162733 | 7 | 176 | 0.0 | 1.6 | 0.13 | 0.30 | 0.30 | 90 | 1011.3 |
| 20260501162229 | 7 | 129 | 0.0 | 0.0 | 0.30 | 0.30 | 0.30 | 90 | 1011.2 |
| 20260501161727 | 7 | 100 | 0.0 | 1.6 | 0.30 | 0.28 | 0.28 | 89 | 1011.2 |
| 20260501161224 | 7 | 160 | 0.0 | 1.6 | 0.30 | 0.25 | 0.25 | 89 | 1011.4 |
| 20260501160720 | 7 | 168 | 0.0 | 1.6 | 0.30 | 0.23 | 0.23 | 88 | 1011.4 |
| 20260501160217 | 7 | 205 | 1.6 | 3.2 | 0.43 | 0.20 | 0.20 | 88 | 1011.2 |
| 20260501155714 | 7 | 277 | 3.2 | 8.0 | 0.13 | 0.15 | 0.15 | 89 | 1011.3 |
| 20260501155211 | 7 | 178 | 4.8 | 4.8 | 0.18 | 0.13 | 0.13 | 90 | 1011.3 |
| 20260501154708 | 7 | 123 | 1.6 | 3.2 | 0.00 | 0.10 | 0.10 | 90 | 1011.3 |
| 20260501154205 | 7 | 27 | 0.0 | 3.2 | 0.30 | 0.10 | 0.10 | 90 | 1011.1 |
| 20260501153703 | 7 | 78 | 1.6 | 1.6 | 0.18 | 0.08 | 0.08 | 88 | 1011.1 |
| 20260501153200 | 7 | 117 | 0.0 | 1.6 | 0.13 | 0.05 | 0.05 | 87 | 1011.1 |
| 20260501152656 | 7 | 115 | 0.0 | 1.6 | 0.13 | 0.05 | 0.05 | 86 | 1011.6 |
| 20260501152153 | 7 | 264 | 3.2 | 3.2 | 0.00 | 0.03 | 0.03 | 86 | 1011.9 |
| 20260501151650 | 7 | 139 | 1.6 | 1.6 | 0.18 | 0.03 | 0.03 | 85 | 1011.7 |
| 20260501151147 | 7 | 144 | 0.0 | 1.6 | 0.18 | 0.03 | 0.03 | 83 | 1011.6 |
| 20260501150643 | 8 | 148 | 1.6 | 3.2 | 0.00 | 0.00 | 0.00 | 83 | 1011.6 |
| 20260501150139 | 8 | 161 | 1.6 | 1.6 | 0.00 | 0.00 | 0.00 | 81 | 1011.7 |
| 20260501145635 | 8 | 140 | 0.0 | 1.6 | 0.00 | 0.00 | 0.00 | 82 | 1011.6 |
| 20260501145134 | 8 | 171 | 0.0 | 1.6 | 0.00 | 0.00 | 0.00 | 81 | 1011.3 |
| 20260501144629 | 8 | 111 | 0.0 | 0.0 | 0.00 | 0.00 | 0.00 | 81 | 1011.4 |
| 20260501144124 | 8 | 124 | 0.0 | 0.0 | 0.00 | 0.00 | 0.00 | 81 | 1011.4 |
| 20260501143621 | 9 | 116 | 0.0 | 1.6 | 0.00 | 0.00 | 0.00 | 80 | 1011.4 |
| 20260501143118 | 8 | 123 | 0.0 | 0.0 | 0.00 | 0.00 | 0.00 | 80 | 1011.6 |
| 20260501142615 | 8 | 187 | 1.6 | 1.6 | 0.00 | 0.00 | 0.00 | 82 | 1011.7 |
| 20260501142111 | 8 | 88 | 1.6 | 1.6 | 0.00 | 0.00 | 0.00 | 80 | 1011.7 |